When you browse on this site, cookies collect data to enhance your experience and personalize the content and advertising you see.
Visit our Privacy Policy to learn more. By continuing to use the site, you agree to this use of cookies and data.
  • In Hungary
  • List of Countries
  • For 7 days
  • Water Temperature
  • Weather Map
  • News
  • Weather Widgets
  • user-avatar
    Login

    Hourly Weather Guszczewina

    Today, 7 December, Saturday

    Time Temperature Precipitation Wind Pressure Humidity
    00:00 -2°C° 0 mm 5 mps 744 mmHg 64%
    01:00 -4°C° 0 mm 5 mps 744 mmHg 64%
    02:00 -4°C° 0 mm 5 mps 743 mmHg 65%
    03:00 -4°C° 0 mm 5 mps 743 mmHg 65%
    04:00 -2°C° 0 mm 5 mps 742 mmHg 64%
    05:00 -2°C° 0 mm 5 mps 742 mmHg 63%
    06:00 -2°C° 0 mm 5 mps 741 mmHg 63%
    07:00 -2°C° 0 mm 5 mps 741 mmHg 63%
    08:00 -2°C° 0 mm 5 mps 741 mmHg 62%
    09:00 -3°C° 0 mm 6 mps 741 mmHg 60%
    10:00 -2°C° 0 mm 6 mps 740 mmHg 57%
    11:00 -1°C° 0 mm 6 mps 740 mmHg 55%
    12:00 -1°C° 0 mm 6 mps 740 mmHg 61%
    13:00 -1°C° 0 mm 6 mps 740 mmHg 67%
    14:00 -1°C° 0 mm 6 mps 739 mmHg 73%
    15:00 +1°C° 0 mm 6 mps 739 mmHg 78%
    16:00 +1°C° 0 mm 6 mps 739 mmHg 82%
    17:00 +2°C° 0 mm 6 mps 738 mmHg 86%
    18:00 +2°C° 0.1 mm 6 mps 739 mmHg 88%
    19:00 +2°C° 0.1 mm 7 mps 739 mmHg 90%
    20:00 +3°C° 0.1 mm 7 mps 739 mmHg 92%
    21:00 +3°C° 0 mm 7 mps 739 mmHg 88%
    22:00 +3°C° 0 mm 6 mps 740 mmHg 85%
    23:00 +3°C° 0 mm 6 mps 740 mmHg 81%

    Tomorrow, 8 December, Sunday

    Time Temperature Precipitation Wind Pressure Humidity
    00:00 +2°C° 0 mm 6 mps 740 mmHg 84%
    01:00 +2°C° 0 mm 6 mps 741 mmHg 87%
    02:00 +2°C° 0 mm 6 mps 741 mmHg 89%
    03:00 +2°C° 0 mm 6 mps 741 mmHg 89%
    04:00 +2°C° 0 mm 5 mps 741 mmHg 89%
    05:00 +2°C° 0 mm 5 mps 741 mmHg 89%
    06:00 +2°C° 0 mm 5 mps 741 mmHg 91%
    07:00 +3°C° 0 mm 4 mps 742 mmHg 92%
    08:00 +3°C° 0 mm 4 mps 742 mmHg 93%
    09:00 +3°C° 0 mm 4 mps 742 mmHg 92%
    10:00 +3°C° 0 mm 4 mps 742 mmHg 91%
    11:00 +3°C° 0 mm 5 mps 742 mmHg 90%
    12:00 +3°C° 0 mm 5 mps 742 mmHg 87%
    13:00 +4°C° 0 mm 6 mps 742 mmHg 84%
    14:00 +4°C° 0 mm 6 mps 741 mmHg 82%
    15:00 +4°C° 0 mm 6 mps 741 mmHg 80%
    16:00 +4°C° 0 mm 6 mps 741 mmHg 79%
    17:00 +4°C° 0 mm 6 mps 740 mmHg 77%
    18:00 +4°C° 0 mm 6 mps 740 mmHg 77%
    19:00 +3°C° 0 mm 6 mps 740 mmHg 77%
    20:00 +3°C° 0 mm 7 mps 739 mmHg 77%
    21:00 +3°C° 0 mm 7 mps 739 mmHg 78%
    22:00 +3°C° 0 mm 6 mps 738 mmHg 79%
    23:00 +3°C° 0 mm 6 mps 738 mmHg 80%

    Day after tomorrow, 9 December, Monday

    Time Temperature Precipitation Wind Pressure Humidity
    00:00 +4°C° 0.4 mm 6 mps 738 mmHg 83%
    01:00 +4°C° 0.4 mm 7 mps 738 mmHg 85%
    02:00 +4°C° 0.4 mm 7 mps 737 mmHg 88%
    03:00 +4°C° 0.1 mm 6 mps 737 mmHg 88%
    04:00 +4°C° 0.1 mm 6 mps 737 mmHg 87%
    05:00 +4°C° 0.1 mm 6 mps 737 mmHg 87%
    06:00 +4°C° 0.3 mm 6 mps 737 mmHg 88%
    07:00 +4°C° 0.3 mm 6 mps 737 mmHg 88%
    08:00 +5°C° 0.3 mm 5 mps 737 mmHg 89%
    09:00 +5°C° 0.7 mm 5 mps 737 mmHg 89%
    10:00 +5°C° 0.7 mm 5 mps 737 mmHg 90%
    11:00 +5°C° 0.7 mm 5 mps 737 mmHg 90%
    12:00 +6°C° 0 mm 5 mps 737 mmHg 86%
    13:00 +6°C° 0 mm 5 mps 737 mmHg 83%
    14:00 +7°C° 0 mm 5 mps 737 mmHg 79%
    15:00 +6°C° 0 mm 5 mps 737 mmHg 81%
    16:00 +6°C° 0 mm 4 mps 738 mmHg 83%
    17:00 +5°C° 0 mm 4 mps 738 mmHg 84%
    18:00 +5°C° 0 mm 4 mps 738 mmHg 84%
    19:00 +5°C° 0 mm 4 mps 739 mmHg 83%
    20:00 +5°C° 0 mm 4 mps 739 mmHg 82%
    21:00 +4°C° 0 mm 4 mps 739 mmHg 82%
    22:00 +4°C° 0 mm 4 mps 739 mmHg 81%
    23:00 +4°C° 0 mm 4 mps 739 mmHg 81%

    10 December, Tuesday

    Time Temperature Precipitation Wind Pressure Humidity
    00:00 +4°C° 0 mm 4 mps 739 mmHg 81%
    01:00 +3°C° 0 mm 5 mps 740 mmHg 81%
    02:00 +3°C° 0 mm 5 mps 740 mmHg 82%
    03:00 +3°C° 0 mm 5 mps 740 mmHg 81%
    04:00 +3°C° 0 mm 5 mps 740 mmHg 81%
    05:00 +3°C° 0 mm 5 mps 740 mmHg 81%
    06:00 +3°C° 0 mm 5 mps 741 mmHg 82%
    07:00 +3°C° 0 mm 5 mps 742 mmHg 83%
    08:00 +3°C° 0 mm 5 mps 742 mmHg 84%
    09:00 +3°C° 0 mm 5 mps 743 mmHg 82%
    10:00 +3°C° 0 mm 5 mps 743 mmHg 80%
    11:00 +3°C° 0 mm 6 mps 744 mmHg 78%
    12:00 +3°C° 0 mm 6 mps 744 mmHg 76%
    13:00 +2°C° 0 mm 5 mps 745 mmHg 74%
    14:00 +2°C° 0 mm 5 mps 745 mmHg 72%
    15:00 +2°C° 0 mm 5 mps 745 mmHg 77%
    16:00 +2°C° 0 mm 5 mps 746 mmHg 83%
    17:00 +1°C° 0 mm 4 mps 747 mmHg 88%
    18:00 +2°C° 0.1 mm 5 mps 748 mmHg 85%
    19:00 +2°C° 0.1 mm 5 mps 749 mmHg 82%
    20:00 +2°C° 0.1 mm 5 mps 750 mmHg 79%
    21:00 +1°C° 0 mm 4 mps 750 mmHg 78%
    22:00 0°C° 0 mm 4 mps 751 mmHg 77%
    23:00 0°C° 0 mm 3 mps 751 mmHg 76%

    11 December, Wednesday

    Time Temperature Precipitation Wind Pressure Humidity
    00:00 +1°C° 0 mm 2 mps 752 mmHg 78%
    01:00 -1°C° 0 mm 2 mps 752 mmHg 81%
    02:00 -1°C° 0 mm 2 mps 753 mmHg 83%
    03:00 -2°C° 0 mm 2 mps 753 mmHg 83%
    04:00 0°C° 0 mm 1 mps 753 mmHg 83%
    05:00 0°C° 0 mm 1 mps 753 mmHg 83%
    06:00 0°C° 0 mm 1 mps 753 mmHg 82%
    07:00 0°C° 0 mm 1 mps 753 mmHg 81%
    08:00 0°C° 0 mm 1 mps 753 mmHg 80%
    09:00 -1°C° 0 mm 2 mps 753 mmHg 75%
    10:00 +1°C° 0 mm 2 mps 753 mmHg 71%
    11:00 0°C° 0 mm 3 mps 753 mmHg 66%
    12:00 0°C° 0 mm 3 mps 753 mmHg 63%
    13:00 +1°C° 0 mm 3 mps 752 mmHg 60%
    14:00 0°C° 0 mm 4 mps 752 mmHg 57%
    15:00 0°C° 0 mm 3 mps 752 mmHg 62%
    16:00 0°C° 0 mm 3 mps 751 mmHg 68%
    17:00 -1°C° 0 mm 3 mps 751 mmHg 74%
    18:00 -1°C° 0 mm 3 mps 751 mmHg 77%
    19:00 -1°C° 0 mm 3 mps 751 mmHg 79%
    20:00 -1°C° 0 mm 3 mps 751 mmHg 81%
    21:00 -2°C° 0 mm 4 mps 750 mmHg 83%
    22:00 -2°C° 0 mm 4 mps 750 mmHg 84%
    23:00 -2°C° 0 mm 4 mps 750 mmHg 85%

    12 December, Thursday

    Time Temperature Precipitation Wind Pressure Humidity
    00:00 -2°C° 0 mm 4 mps 750 mmHg 87%
    01:00 -2°C° 0 mm 4 mps 749 mmHg 88%
    02:00 -2°C° 0 mm 4 mps 749 mmHg 90%
    03:00 -2°C° 0 mm 4 mps 749 mmHg 90%
    04:00 -1°C° 0 mm 3 mps 748 mmHg 91%
    05:00 -1°C° 0 mm 3 mps 748 mmHg 92%
    06:00 -2°C° 0 mm 3 mps 748 mmHg 92%
    07:00 -2°C° 0 mm 3 mps 748 mmHg 93%
    08:00 -2°C° 0 mm 3 mps 747 mmHg 93%
    09:00 -1°C° 0 mm 3 mps 747 mmHg 90%
    10:00 -2°C° 0 mm 4 mps 747 mmHg 87%
    11:00 -1°C° 0 mm 4 mps 747 mmHg 84%
    12:00 -1°C° 0 mm 4 mps 747 mmHg 82%
    13:00 -1°C° 0 mm 4 mps 746 mmHg 81%
    14:00 0°C° 0 mm 4 mps 746 mmHg 80%
    15:00 -1°C° 0 mm 4 mps 746 mmHg 83%
    16:00 -1°C° 0 mm 4 mps 745 mmHg 86%
    17:00 -2°C° 0 mm 4 mps 745 mmHg 89%
    18:00 -2°C° 0 mm 4 mps 745 mmHg 89%
    19:00 -2°C° 0 mm 4 mps 745 mmHg 89%
    20:00 -2°C° 0 mm 4 mps 745 mmHg 89%
    21:00 -2°C° 0 mm 4 mps 745 mmHg 90%
    22:00 -1°C° 0 mm 3 mps 745 mmHg 91%
    23:00 -1°C° 0 mm 3 mps 745 mmHg 92%
    Show more